Date String (YYYY-MM-DD hh:mm:ss) UTC,Instrument flags,Ambient pressure (hPa),Sample flow (lpm),Bypass flow (lpm),Sample temperature (°C),Ambient temperature (°C),ASC tube jacket temperature (°C),LED temperature (°C),Box temperature (°C),Sample RH (%),Span deviation,Mass concentration (μg/m³),Mass concentration (μg/m³),Mass concentration (μg/m³)
DateTimeUTC,F1_M11,P_M11,Q1_M11,Q2_M11,T1_M11,T2_M11,T3_M11,T4_M11,T5_M11,U1_M11,ZSPAN_M11,X0_M11,X2_M11,X1_M11
2022-09-02 12:00:00,,0827.0,5.00,0.00,30.2,27.8,00.0,39.1,31.9,12.5,0000.0,0010.33,0004.59,0004.06
2022-09-02 12:01:00,,0827.0,5.00,0.00,30.2,28.1,00.0,39.0,31.9,12.5,0000.0,0010.16,0004.59,0004.05
2022-09-02 12:02:00,,0827.1,4.99,0.00,30.2,28.3,00.0,39.0,31.9,12.5,0000.0,0010.03,0004.59,0004.04
2022-09-02 12:03:00,,0827.0,5.02,0.00,30.2,28.4,00.0,39.0,31.9,12.3,0000.0,0009.32,0004.56,0004.04
2022-09-02 12:04:00,,0827.0,5.00,0.00,30.2,28.6,00.0,39.0,32.0,12.4,0000.0,0008.71,0004.52,0004.04
2022-09-02 12:05:00,,0827.2,5.00,0.00,30.2,28.7,00.0,39.0,32.0,12.4,0000.0,0009.19,0004.51,0004.04
2022-09-02 12:06:00,,0827.0,5.00,0.00,30.2,28.8,00.0,39.0,32.0,12.3,0000.0,0009.01,0004.47,0004.04
2022-09-02 12:07:00,,0827.0,5.00,0.00,30.2,28.9,00.0,39.0,32.0,12.3,0000.0,0009.02,0004.47,0004.04
2022-09-02 12:08:00,,0827.3,5.00,0.00,30.2,28.9,00.0,39.0,32.0,12.4,0000.0,0008.83,0004.46,0004.04
2022-09-02 12:09:00,,0827.2,4.97,0.00,30.2,29.0,00.0,39.0,32.1,12.4,0000.0,0009.12,0004.47,0004.04
2022-09-02 12:10:00,,0827.1,5.01,0.00,30.3,29.1,00.0,39.0,32.1,12.3,0000.0,0009.46,0004.49,0004.04
2022-09-02 12:11:00,,0827.3,5.01,0.00,30.3,29.1,00.0,39.1,32.1,12.4,0000.0,0008.88,0004.46,0004.05
2022-09-02 12:12:00,,0827.4,5.00,0.00,30.3,29.1,00.0,39.1,32.1,12.5,0000.0,0009.08,0004.45,0004.06
2022-09-02 12:13:00,,0827.3,5.01,0.00,30.3,29.2,00.0,39.1,32.1,12.4,0000.0,0009.27,0004.46,0004.07
2022-09-02 12:14:00,,0827.1,4.99,0.00,30.3,29.2,00.0,39.1,32.1,12.3,0000.0,0009.32,0004.46,0004.08
2022-09-02 12:15:00,,0827.1,5.00,0.00,30.4,29.2,00.0,39.1,32.2,12.3,0000.0,0009.38,0004.49,0004.07
2022-09-02 12:16:00,,0827.1,5.01,0.00,30.4,29.3,00.0,39.1,32.2,12.3,0000.0,0008.90,0004.48,0004.07
2022-09-02 12:17:00,,0827.2,5.01,0.00,30.4,29.3,00.0,39.1,32.2,12.3,0000.0,0009.07,0004.51,0004.06
2022-09-02 12:18:00,,0827.2,4.98,0.00,30.4,29.3,00.0,39.2,32.2,12.6,0000.0,0009.02,0004.49,0004.07
2022-09-02 12:19:00,,0827.2,5.00,0.00,30.5,29.4,00.0,39.2,32.3,12.8,0000.0,0009.10,0004.53,0004.11
2022-09-02 12:20:00,,0827.2,5.01,0.00,30.5,29.4,00.0,39.2,32.3,12.7,0000.0,0008.57,0004.54,0004.14
2022-09-02 12:21:00,,0827.2,4.99,0.00,30.5,29.4,00.0,39.2,32.3,12.3,0000.0,0008.49,0004.58,0004.15
2022-09-02 12:22:00,,0827.2,5.00,0.00,30.5,28.3,00.0,39.2,32.2,12.4,0000.0,0008.73,0004.62,0004.15
2022-09-02 12:23:00,,0827.2,5.01,0.00,30.4,27.3,00.0,39.2,32.1,12.7,0000.0,0008.61,0004.69,0004.20
2022-09-02 12:24:00,,0827.1,4.99,0.00,30.4,27.3,00.0,39.1,32.1,12.7,0000.0,0008.49,0004.79,0004.29
2022-09-02 12:25:00,,0827.2,5.00,0.00,30.3,27.5,00.0,39.1,31.9,12.7,0000.0,0008.58,0004.87,0004.38
2022-09-02 12:26:00,,0827.3,5.00,0.00,30.3,27.8,00.0,39.1,31.9,12.8,0000.0,0008.65,0004.96,0004.47
2022-09-02 12:27:00,,0827.2,5.01,0.00,30.2,28.1,00.0,39.1,31.9,12.9,0000.0,0008.82,0005.10,0004.57
2022-09-02 12:28:00,,0827.2,5.00,0.00,30.2,28.3,00.0,39.1,31.9,12.9,0000.0,0008.94,0005.18,0004.65
2022-09-02 12:29:00,,0827.3,5.00,0.00,30.2,28.5,00.0,39.0,32.0,12.9,0000.0,0009.06,0005.27,0004.73
2022-09-02 12:30:00,,0827.3,5.00,0.00,30.2,28.7,00.0,39.0,32.0,13.0,0000.0,0009.17,0005.32,0004.78
2022-09-02 12:31:00,,0827.3,5.01,0.00,30.2,28.8,00.0,39.0,32.0,13.0,0000.0,0009.89,0005.37,0004.85
2022-09-02 12:32:00,,0827.3,5.01,0.00,30.2,28.9,00.0,39.0,32.0,13.0,0000.0,0009.97,0005.42,0004.92
2022-09-02 12:33:00,,0827.3,4.98,0.00,30.3,28.9,00.0,39.0,32.1,13.0,0000.0,0010.28,0005.50,0005.00
2022-09-02 12:34:00,,0827.3,5.00,0.00,30.3,29.0,00.0,39.0,32.1,13.0,0000.0,0010.80,0005.58,0005.06
2022-09-02 12:35:00,,0827.3,4.99,0.00,30.3,29.1,00.0,39.1,32.1,12.9,0000.0,0010.91,0005.60,0005.08
2022-09-02 12:36:00,,0827.3,5.01,0.00,30.3,29.1,00.0,39.1,32.1,12.9,0000.0,0010.91,0005.65,0005.11
2022-09-02 12:37:00,,0827.3,5.00,0.00,30.3,29.2,00.0,39.1,32.1,12.9,0000.0,0010.93,0005.70,0005.16
2022-09-02 12:38:00,,0827.4,5.00,0.00,30.3,29.2,00.0,39.1,32.2,12.9,0000.0,0011.04,0005.71,0005.19
2022-09-02 12:39:00,,0827.4,4.98,0.00,30.4,29.3,00.0,39.1,32.2,12.9,0000.0,0011.02,0005.75,0005.24
2022-09-02 12:40:00,,0827.4,5.00,0.00,30.4,29.3,00.0,39.1,32.2,12.9,0000.0,0011.78,0005.81,0005.30
2022-09-02 12:41:00,,0827.4,5.00,0.00,30.4,29.3,00.0,39.2,32.2,12.9,0000.0,0012.37,0005.86,0005.33
2022-09-02 12:42:00,,0827.4,5.00,0.00,30.5,29.4,00.0,39.2,32.3,12.8,0000.0,0012.03,0005.94,0005.37
2022-09-02 12:43:00,,0827.4,4.98,0.00,30.5,29.4,00.0,39.2,32.3,12.8,0000.0,0011.86,0006.01,0005.40
2022-09-02 12:44:00,,0827.4,5.00,0.00,30.5,29.4,00.0,39.2,32.3,12.8,0000.0,0011.92,0006.07,0005.43
2022-09-02 12:45:00,,0827.4,5.01,0.00,30.5,29.5,00.0,39.2,32.3,12.7,0000.0,0012.28,0006.10,0005.47
2022-09-02 12:46:00,,0827.4,5.00,0.00,30.5,29.5,00.0,39.3,32.4,12.7,0000.0,0012.44,0006.14,0005.49
2022-09-02 12:47:00,,0827.4,5.00,0.00,30.6,29.5,00.0,39.3,32.4,12.7,0000.0,0013.09,0006.15,0005.49
2022-09-02 12:48:00,,0827.4,4.99,0.00,30.6,28.7,00.0,39.3,32.4,12.6,0000.0,0013.64,0006.15,0005.47
2022-09-02 12:49:00,,0827.4,5.01,0.00,30.5,27.0,00.0,39.3,32.1,12.6,0000.0,0013.99,0006.20,0005.47
2022-09-02 12:50:00,,0827.5,4.99,0.00,30.4,26.5,00.0,39.2,32.0,12.7,0000.0,0014.00,0006.23,0005.45
2022-09-02 12:51:00,,0827.5,5.01,0.00,30.3,26.7,00.0,39.1,32.0,12.7,0000.0,0013.39,0006.23,0005.42
2022-09-02 12:52:00,,0827.5,5.00,0.00,30.2,27.1,00.0,39.1,31.8,12.7,0000.0,0013.50,0006.29,0005.41
2022-09-02 12:53:00,,0827.5,5.00,0.00,30.2,27.5,00.0,39.0,31.8,12.8,0000.0,0013.49,0006.26,0005.39
2022-09-02 12:54:00,,0827.5,5.00,0.00,30.2,27.8,00.0,39.0,31.8,12.9,0000.0,0013.68,0006.21,0005.36
2022-09-02 12:55:00,,0827.6,5.00,0.00,30.1,28.1,00.0,39.0,31.8,12.9,0000.0,0013.70,0006.20,0005.33
2022-09-02 12:56:00,,0827.5,5.00,0.00,30.1,28.3,00.0,39.0,31.9,12.9,0000.0,0013.46,0006.16,0005.27
2022-09-02 12:57:00,,0827.5,5.00,0.00,30.1,28.4,00.0,39.0,31.9,12.9,0000.0,0013.87,0006.15,0005.23
2022-09-02 12:58:00,,0827.6,5.01,0.00,30.1,28.6,00.0,39.0,31.9,12.9,0000.0,0013.60,0006.11,0005.19
2022-09-02 12:59:00,,0827.5,4.99,0.00,30.1,28.7,00.0,39.0,31.9,13.0,0000.0,0013.33,0006.10,0005.14
